www.pogodaiklimat.ru

Погода и климат >> Архив погоды >> Россия >> Якутия >> Верхоянский Перевоз


ПОГОДА в Верхоянском Перевозе

  • Прогноз погоды в Верхоянском Перевозе
  • Монитор погоды в Верхоянском Перевозе

АРХИВ ПОГОДЫ в Верхоянском Перевозе

Время (UTC), дата Ветер
(напр.,м/с)
 
Видим.   Явления Облачность Т
(С)
Тd
(С)
f
(%)
Тe
(С)
Тes
(С)
Комфортность P
(гПа)
Po
(гПа)
Тmin
(С)
Tmax
(С)
R
(мм)
R24
(мм)
S
(см)
06 13.03 В 2 50 км 6/0
[Ac lent Ci sp]
-10.1 -14.5 70 -15 -13 1018.3 1006.4
09 13.03 В 1 50 км 8/0
[Ac trans Cs]
-10.4 -15.7 65 -13 -13 1017.9 1006.0
12 13.03 В 2 50 км 9/6 600 м
[Sc Ac trans]
-12.4 -16.7 70 -17 -17 1018.2 1006.0 -9.1
15 13.03 В 1 50 км 4/0
[Ac trans]
-13.1 -17.4 70 -15 -15 1017.3 1005.3
18 13.03 В 1 50 км 3/0
[Ac trans]
-17.2 -21.4 70 -20 -20 1017.6 1005.3
21 13.03 В 1 50 км 6/0
[Ac lent]
-16.0 -19.4 75 -19 -19 1016.7 1004.6
00 14.03 В 2 50 км 9/0
[Ac As Cs]
-15.9 -20.1 70 -21 -20 1016.2 1004.0 -17.3 36
03 14.03 В 2 50 км 9/0
[As op Cs]
-11.9 -19.1 55 -16 -14 1014.8 1002.8
06 14.03 В 1 50 км 10/0
[As op Cs]
-9.0 -17.0 52 -11 -10 1013.7 1001.9
09 14.03 В 1 50 км 10/0
[As op]
-9.1 -14.7 64 -11 -11 1013.7 1001.9
12 14.03 штиль 0 20 км слаб. снег 4/0
[As op]
-12.6 -13.9 90 -13 -13 1013.6 1001.6 -8.9 0.3
15 14.03 штиль 0 50 км {снег} 3/0
[As op]
-19.8 -21.7 85 -20 -20 1013.2 1000.9
18 14.03 штиль 0 50 км {снег} ясно -23.6 -25.5 84 -24 -24 1013.1 1000.6
21 14.03 штиль 0 20 км слаб. снег 6/0
[Cs]
-25.4 -27.2 85 -25 -25 1012.7 1000.1
00 15.03 штиль 0 20 км слаб. снег 8/0
[Cs]
-21.1 -22.3 90 -21 -19 1012.5 1000.1 -26.4 0.3 36
03 15.03 С 1 20 км слаб. снег 8/0
[Cs]
-16.5 -18.4 85 -19 -15 1012.2 1000.0
06 15.03 СЗ 1 50 км {снег} 3/0
[Cs]
-12.6 -16.1 75 -15 -12 1011.2 999.2
09 15.03 штиль 0 50 км 3/0
[Ci sp]
-12.5 -16.0 75 -13 -13 1011.0 999.0
12 15.03 штиль 0 50 км ясно -22.8 -25.3 80 -23 -23 1012.4 1000.0 -11.7 0.0
15 15.03 штиль 0 50 км ясно -28.0 -30.5 79 -28 -28 1013.3 1000.6
18 15.03 штиль 0 50 км ясно -32.1 -34.4 80 -32 -32 опасность
обморожения
1014.1 1001.1
21 15.03 штиль 0 50 км ясно -33.5 -35.9 79 -34 -34 опасность
обморожения
1014.7 1001.6
00 16.03 штиль 0 50 км 3/0
[Ac lent]
-30.3 -32.8 79 -30 -28 1014.5 1001.6 -34.1 36
03 16.03 штиль 0 50 км ясно -20.7 -24.0 75 -21 -15 1014.0 1001.7
06 16.03 СЗ 1 50 км ясно -12.2 -16.6 70 -14 -12 1012.8 1000.8
09 16.03 штиль 0 50 км ясно -15.0 -20.1 65 -15 -15 1012.9 1000.8
12 16.03 штиль 0 50 км ясно -23.0 -26.3 74 -23 -23 1013.6 1001.2 -11.5
15 16.03 штиль 0 50 км ясно -26.9 -29.3 80 -27 -27 1013.6 1001.0
18 16.03 штиль 0 50 км ясно -30.2 -32.6 79 -30 -30 1013.9 1001.0
21 16.03 штиль 0 50 км ясно -35.3 -37.7 79 -35 -35 опасность
обморожения
1014.1 1000.9
00 17.03 штиль 0 50 км ясно -28.8 -31.9 74 -29 -26 1014.1 1001.4 -35.9 36
03 17.03 В 1 50 км ясно -19.4 -23.5 70 -22 -17 1013.1 1000.8
06 17.03 штиль 0 50 км ясно -11.4 -21.0 45 -11 -8 1012.2 1000.2
09 17.03 В 1 50 км ясно -12.3 -21.8 45 -15 -15 1013.0 1001.0
12 17.03 штиль 0 50 км ясно -24.3 -29.9 60 -24 -24 1013.7 1001.2 -11.2
15 17.03 штиль 0 50 км ясно -29.9 -33.0 74 -30 -30 1014.2 1001.3
18 17.03 штиль 0 50 км ясно -32.7 -35.8 74 -33 -33 опасность
обморожения
1014.8 1001.8
21 17.03 штиль 0 50 км ясно -37.0 -39.8 75 -37 -37 опасность
обморожения
1015.3 1002.0
00 18.03 штиль 0 50 км 1/0
[Ci fib]
-31.8 -34.8 75 -32 -29 опасность
обморожения
1016.2 1003.2 -37.9 36
03 18.03 штиль 0 50 км ясно -21.3 -26.1 65 -21 -15 1015.1 1002.6
06 18.03 С 1 50 км 3/0
[Ci fib]
-13.4 -22.8 45 -16 -13 1014.2 1002.1
09 18.03 штиль 0 50 км 3/0
[Cs]
-14.4 -23.7 45 -14 -14 1014.9 1002.8
12 18.03 штиль 0 50 км ясно -24.9 -30.5 60 -25 -25 1016.1 1003.5 -11.3
15 18.03 штиль 0 50 км ясно -30.4 -33.4 75 -30 -30 1017.2 1004.3
18 18.03 штиль 0 50 км ясно -34.3 -37.1 76 -34 -34 опасность
обморожения
1018.0 1004.9
21 18.03 штиль 0 50 км 3/0
[Ci fib]
-36.4 -39.4 74 -36 -36 опасность
обморожения
1018.9 1005.7
00 19.03 штиль 0 50 км ясно -30.3 -33.4 74 -30 -28 1020.5 1007.5 -37.5 36
03 19.03 В 1 50 км 4/0
[Ac lent]
-18.8 -22.9 70 -22 -18 1020.0 1007.5
06 19.03 В 1 50 км ясно -13.9 -22.1 50 -16 -13 1020.1 1007.9
09 19.03 штиль 0 50 км ясно -14.8 -20.8 60 -15 -15 1020.2 1008.0
12 19.03 штиль 0 50 км ясно -23.9 -28.7 64 -24 -24 1021.4 1008.7 -13.7
15 19.03 штиль 0 50 км ясно -30.4 -33.4 75 -30 -30 1022.6 1009.6
18 19.03 штиль 0 50 км ясно -35.1 -38.0 75 -35 -35 опасность
обморожения
1023.3 1010.0
21 19.03 штиль 0 50 км ясно -37.2 -40.1 74 -37 -37 опасность
обморожения
1023.7 1010.4
00 20.03 штиль 0 50 км ясно -32.4 -35.5 74 -32 -30 опасность
обморожения
1023.5 1010.4 -38.1 36

 

Местоположение метеостанции Верхоянский Перевоз (Якутия, Россия): широта 63.32 долгота 132.00 высота над уровнем моря 91 м.

В архиве по умолчанию представлена погода в Верхоянском Перевозе за последнюю неделю. Архивные данные за месяц целиком и за предыдущие месяцы, начиная с января 2011 года, Вы можете получить, выбрав интересующий диапазон дат из раскрывающегося списка и нажав кнопку "Ввод!".


*Определитесь, кто Вы:
робот инопланетянин человек

Внимание! Время в таблицах - всемирное. Для получения местного времени необходимо прибавить поправку, которая равна 9 ч.

Смотрите также архив погоды в соседних городах и на ближайших метеорологических станциях:

Погода в Сеген-Кюеле (Якутия, Россия) (113 км)
Погода в Ытык-Кюёле (Якутия, Россия) (130 км)
Погода в Батамае (Якутия, Россия) (131 км)
Погода в Крест-Хальджае (Якутия, Россия) (133 км)
Погода в Намцах (Якутия, Россия) (138 км)
Погода в Чурапче (Якутия, Россия) (147 км)
Погода в Якутске (Якутия, Россия) (191 км)
Погода в Томпо (Якутия, Россия) (200 км)
Погода в Сангаре (Якутия, Россия) (238 км)
Погода в Себян-Кюеле (Якутия, Россия) (240 км)

Пояснения к столбцам:

Ветер - указаны скорость ветра в м/с - средняя за 10 мин, порывы в срок и между сроками (в фигурных скобках) и направление, откуда дует ветер: С - северный, СВ - северо-восточный, В - восточный, ЮВ - юго-восточный, Ю - южный, ЮЗ - юго-западный, З - западный, СЗ - северо-западный.
Видимость - горизонтальная дальность видимости в метрах или километрах. При видимости от 1 до 10 км при отсутствии осадков обычно наблюдается дымка, при ухудшении видимости до 1 км и менее - туман. В сухую погоду видимость может ухудшаться дымом, пылью или мглою.
Явления - указаны атмосферные явления, наблюдавшиеся в срок или в последний час перед сроком; фигурными скобками обозначены явления, наблюдавшиеся между сроками (за 1-3 часа до срока); квадратными скобками обозначены град или гололедные отложения с указанием их диаметра в мм.
Облачность - указаны через наклонную черту общая и нижняя облачность в баллах и высота нижней границы облаков в метрах; квадратными скобками обозначены формы облаков: Ci - перистые, Cs - перисто-слоистые, Cc - перисто-кучевые, Ac - высококучевые, As - высокослоистые, Sc - слоисто-кучевые, Ns - слоисто-дождевые, Cu - кучевые, Cb - кучево-дождевые. Подробнее классификацию облаков см. в Атласе облаков (PDF).
T - Температура воздуха - температура, измеренная на высоте 2 м над землей.
Td - Температура точки росы - температура, при понижении до которой содержащийся в воздухе водяной пар достигнет насыщения.
f - Относительная влажность воздуха - влажноcть воздуха, измеренная на высоте 2 м над землей.
Te - Эффективная температура - температура, которую ощущает одетый по сезону человек в тени. Характеристика душности погоды. При расчете учитывается влияние влажности воздуха и скорости ветра на теплоощущения человека.
Tes - Эффективная температура на солнце - температура, которую ощущает человек, с поправкой на солнечный нагрев. Характеристика знойности погоды. Зависит от высоты солнца над горизонтом, облачности и скорости ветра. Ночью, в пасмурную погоду, а также при ветре 12 м/с и более поправка равна нулю.
P - Атмосферное давление - приведенное к уровню моря атмосферное давление.
Po - Атмосферное давление - измеренное на уровне метеостанции атмосферное давление.
Tmin - Минимальная температура - минимум температуры воздуха на высоте 2 м над землей.
Tmax - Максимальная температура - максимум температуры воздуха на высоте 2 м над землей.
R - Количество осадков - Количество выпавших осадков за период времени, мм. При наведении курсора мыши на число - период времени, за который выпало указанное количество осадков.
R24 - Количество осадков - Количество выпавших осадков за 24 часа, мм.
S - Снежный покров - Высота снежного покрова, см. При наведении курсора мыши на число - состояние снежного покрова и степень покрытия местности в баллах.